SCP
1 1 1 1 1 1 1 1 1 2 2 2 2 2 2 1 1 1 1 1 1 1 0 0 0 0 0 1 1 0 0 0 0 0 0 0 0 0 0 0 0 0 0
1 1 1 1 1 1 1 1 1 2 2 2 2 2 2 1 1 1 1 1 1 1 1 0 0 0 1 1 1 0 0 0 0 0 0 0 0 0 0 0 0 0 0
1 1 1 1 1 1 1 1 1 2 2 2 2 2 2 2 1 1 1 1 1 1 1 0 0 0 0 0 0 0 0 0 0 0 0 0 0 0 0 0 0 0 0
1 1 1 1 1 1 1 1 1 1 1 2 2 2 2 2 1 1 1 1 1 0 0 0 0 0 0 0 0 0 0 0 0 0 0 0 0 0 0 0 0 0 0
1 1 1 1 1 1 1 1 1 1 1 1 2 2 2 1 1 1 1 0 0 0 0 0 0 0 0 0 0 0 0 0 0 0 0 0 0 0 0 0 0 0 0
0 0 0 1 1 1 1 1 1 1 1 1 1 1 1 1 1 0 0 0 0 0 0 0 0 0 0 0 0 0 0 0 0 0 0 0 0 0 0 0 0 0 0
0 0 0 0 0 1 1 1 1 1 1 1 1 1 1 1 0 0 0 0 0 0 0 0 0 0 0 0 0 0 0 0 0 0 0 0 0 0 0 0 0 0 0
0 0 0 0 0 0 1 1 1 1 1 1 1 0 0 0 0 0 0 0 0 0 0 0 0 0 0 0 0 0 0 0 0 0 0 0 0 0 0 0 0 0 0
0 0 0 0 0 0 0 0 0 0 0 0 0 0 0 0 0 0 0 0 0 0 0 0 0 0 0 0 0 0 0 0 0 0 0 0 0 0 0 0 0 0 0
0 0 0 0 0 0 0 0 0 0 0 0 0 0 0 0 0 0 0 0 0 0 0 0 0 0 0 0 0 0 0 0 0 0 0 0 0 0 0 0 0 0 0
0 0 0 0 0 0 0 0 0 0 0 0 0 0 0 0 0 0 0 0 0 0 0 0 0 0 0 0 0 0 0 0 0 0 0 0 0 0 0 0 0 0 0
0 0 0 0 0 0 0 0 0 0 0 0 0 0 0 0 0 0 0 0 0 0 0 0 0 0 0 0 0 0 0 0 0 0 0 0 0 0 0 0 0 0 0
0 0 0 0 0 0 0 0 0 0 0 0 0 0 0 0 0 0 0 0 0 0 0 0 0 0 0 0 0 0 0 0 0 0 0 0 0 0 0 0 0 0 0
0 0 0 0 0 0 0 0 0 0 0 0 0 0 0 0 0 0 0 0 0 0 0 0 0 0 0 0 0 0 0 0 0 0 0 0 0 0 0 0 0 0 0
0 0 0 0 0 0 0 0 0 0 0 0 0 0 0 0 0 0 0 0 0 0 0 0 0 0 0 0 0 0 0 0 0 0 0 0 0 0 0 0 0 0 0
0 0 0 0 0 0 0 0 0 0 0 0 0 0 0 0 0 0 0 0 0 0 0 0 0 0 0 0 0 0 0 0 0 0 0 0 0 0 0 0 0 0 0
0 0 0 0 0 0 0 0 0 0 0 0 0 0 0 0 0 0 0 0 0 0 0 0 0 0 0 0 0 0 0 0 0 0 0 0 0 0 0 0 0 0 0
0 0 0 0 0 0 0 0 0 0 0 0 0 0 0 0 0 0 0 0 0 0 0 0 0 0 0 0 0 0 0 0 0 0 0 0 0 0 0 0 0 0 0
0 0 0 0 0 0 0 0 0 0 0 0 0 0 0 0 0 0 0 0 0 0 0 0 0 0 0 0 0 0 0 0 0 0 0 0 0 0 0 0 0 0 0
0 0 0 0 0 0 0 0 0 0 0 0 0 0 0 0 0 0 0 0 0 0 0 0 0 0 0 0 0 0 0 0 0 0 0 0 0 0 0 0 0 0 0
0 0 0 0 0 0 0 0 0 0 0 0 0 0 0 0 0 0 0 0 0 0 0 0 0 0 0 0 0 0 0 0 0 0 0 0 0 0 0 0 0 0 0
0 0 0 0 0 0 0 0 0 0 0 0 0 0 0 0 0 0 0 0 0 0 0 0 0 0 0 0 0 0 0 0 0 0 0 0 0 0 0 0 0 0 0
0 0 0 0 0 0 0 0 0 0 0 0 0 0 0 0 0 0 0 0 0 0 0 0 0 0 0 0 0 0 0 0 0 0 0 0 0 0 0 0 0 0 0
0 0 0 0 0 0 0 0 0 0 0 0 0 0 0 0 -0 0 0 0 0 0 0 0 0 0 0 0 0 0 0 0 0 0 0 0 0 0 0 0 0 0 0
0 0 0 0 0 0 0 0 0 0 0 0 0 0 0 0 0 0 0 0 0 0 0 0 0 0 0 0 0 0 0 0 0 0 0 0 0 0 0 0 0 0 0
0 0 0 0 0 0 0 0 0 0 0 0 0 0 0 0 0 0 0 0 0 0 0 0 0 0 0 0 0 0 0 0 0 0 0 0 0 0 0 0 0 0 0
Wind_Speed
2 2 3 5 6 7 8 9 9 7 5 4 4 4 5 4 4 5 6 6 6 6 6 5 5 5 5 6 5 3 4 4 2 2 5 5 6 7 7 6 6 7 6
2 1 1 1 3 4 5 5 5 5 6 5 4 3 3 3 3 3 4 4 4 4 5 5 5 5 4 5 5 4 2 2 2 2 3 4 5 4 4 3 4 5 4
2 2 2 2 2 1 2 3 4 4 4 4 2 1 0 0 1 2 2 2 3 3 3 4 3 3 4 4 4 4 5 4 3 4 4 3 4 4 4 3 3 3 3
5 3 3 2 2 2 2 3 4 4 4 4 3 4 4 4 4 3 1 1 1 2 2 2 2 2 2 3 4 3 4 4 5 3 4 6 4 4 5 3 3 4 4
5 4 3 3 2 2 2 3 4 4 4 4 6 6 5 4 2 1 2 1 1 1 1 1 1 1 1 2 2 2 3 3 4 4 3 4 4 6 6 6 4 3 4
4 4 4 3 3 2 2 2 2 3 3 4 4 6 6 5 4 3 3 1 1 1 2 2 2 1 1 0 1 1 2 2 3 3 3 3 3 3 4 5 5 5 4
5 5 5 5 4 4 4 3 2 2 1 2 3 4 5 5 5 4 3 3 1 1 2 2 2 2 2 2 1 1 1 1 1 2 2 2 3 3 3 4 4 4 3
5 5 6 6 5 5 4 3 3 1 1 2 3 4 5 4 3 4 3 3 2 1 1 2 3 3 2 2 2 1 1 1 2 2 2 2 2 2 2 2 3 3 3
5 5 5 5 5 5 4 3 2 0 1 3 4 5 5 6 5 4 4 3 2 2 2 3 3 3 2 2 2 1 1 2 2 3 3 3 3 2 2 2 2 2 3
6 5 4 4 4 4 3 3 1 0 2 2 3 4 5 6 6 5 5 4 3 3 3 3 3 3 3 3 2 1 2 2 2 1 2 2 2 2 2 2 2 2 3
6 5 4 3 3 3 2 2 2 2 2 3 3 4 5 5 6 5 4 4 3 3 3 3 4 4 4 4 3 3 3 3 3 4 4 4 4 3 3 3 3 2 2
5 4 3 2 2 2 2 2 2 1 1 2 3 4 5 5 5 5 4 4 4 4 4 4 5 5 5 5 5 4 5 5 5 5 5 6 4 5 4 4 4 3 3
5 3 2 2 2 1 1 1 1 1 1 2 3 4 4 5 4 4 4 4 5 5 5 5 6 5 5 5 5 5 6 6 6 6 6 6 6 6 4 5 5 4 4
3 3 2 1 1 1 1 1 0 1 2 3 4 4 4 4 4 4 4 5 5 5 5 5 5 5 5 5 5 6 6 6 6 6 6 6 5 5 5 5 5 5 5
4 4 3 2 1 1 1 1 1 1 2 4 4 4 3 4 4 4 4 5 5 6 5 5 5 5 5 4 5 5 6 6 6 7 6 7 9 9 6 4 5 5 5
5 5 4 4 3 3 2 2 1 1 2 4 4 4 4 4 4 4 4 5 5 5 5 5 5 5 4 5 7 6 6 6 7 6 6 6 9 10 10 9 7 6 5
6 6 5 5 5 4 4 3 2 2 3 3 4 5 5 5 4 4 4 5 4 4 5 4 4 5 5 6 8 9 7 7 6 6 6 6 8 9 8 8 8 8 8
7 6 5 5 4 3 3 3 3 3 4 4 4 5 5 5 5 5 4 4 3 4 4 4 4 4 6 6 8 9 7 6 6 5 5 5 7 9 8 7 8 8 8
7 6 6 5 4 4 4 3 3 3 4 4 5 5 5 5 5 5 4 3 4 4 4 4 4 5 6 6 7 7 5 5 5 4 5 6 6 10 10 8 8 8 8
6 6 5 4 4 4 4 4 4 4 5 5 5 5 5 6 5 5 4 3 4 5 5 5 5 5 6 7 7 6 4 4 3 3 4 7 8 9 9 6 6 7 7
7 6 6 5 5 4 5 5 5 5 5 5 5 5 5 5 5 4 3 4 5 6 5 6 4 5 6 8 9 7 4 3 3 3 4 5 10 9 8 6 5 5 5
7 7 6 6 5 5 6 5 6 5 5 6 6 6 5 4 5 5 4 5 6 6 5 5 4 3 4 6 8 9 7 4 3 2 3 4 8 8 8 6 7 8 6
8 7 7 6 5 5 6 7 5 5 7 7 6 6 5 4 5 5 5 5 5 5 4 4 4 2 2 4 7 8 7 6 3 2 4 5 6 5 5 8 9 7 5
8 7 7 6 6 6 7 7 6 7 8 7 6 6 5 5 4 4 4 5 5 5 5 4 4 3 2 2 2 2 3 4 4 3 4 5 6 5 4 5 5 5 4
7 7 8 8 8 7 7 7 7 9 8 8 7 6 5 5 4 3 3 4 4 5 6 5 4 4 3 2 3 2 1 2 2 2 2 3 3 4 4 4 4 4 4
8 8 9 9 8 7 8 7 8 10 9 7 7 5 5 4 4 4 3 2 2 5 6 6 6 3 4 6 4 2 1 2 1 2 2 2 2 2 2 3 3 3 4
Wind_Direction
215 142 174 186 190 197 200 205 206 211 196 186 194 196 208 212 214 216 214 212 211 207 203 209 211 205 215 226 225 230 245 251 238 271 287 283 272 267 267 268 273 275 273
41 33 49 213 199 206 209 212 215 218 207 204 200 196 198 205 208 209 206 207 207 205 206 208 211 210 218 230 230 222 239 251 206 224 285 302 309 290 272 274 272 280 284
35 29 26 358 336 260 228 219 213 213 218 218 199 172 172 219 227 236 221 213 207 209 208 211 210 206 206 230 241 230 237 259 252 210 229 258 271 306 296 283 278 286 291
18 25 24 343 322 292 264 215 194 203 212 205 203 210 219 235 228 222 218 227 198 200 210 210 209 212 210 229 248 240 234 247 264 247 226 234 242 266 295 296 290 292 286
2 356 346 314 296 281 258 218 195 198 200 198 201 207 220 231 222 190 149 152 95 93 122 148 170 196 215 243 259 260 246 240 256 260 254 250 244 237 255 283 293 297 279
341 334 326 317 305 297 287 267 225 219 204 193 193 199 197 188 178 171 157 151 99 60 49 68 76 75 62 343 298 284 275 263 265 269 262 260 261 257 250 266 279 286 282
320 319 320 320 318 317 308 298 269 242 208 164 156 170 167 161 163 160 151 141 118 76 45 58 65 63 55 44 33 21 353 313 291 286 278 270 265 263 261 266 276 278 285
298 304 307 312 312 312 309 302 290 274 116 117 106 108 115 116 115 118 121 115 103 87 53 57 61 56 49 42 35 28 353 334 308 293 285 279 277 273 270 273 287 291 285
271 279 294 307 312 317 320 309 295 286 108 111 113 106 106 108 107 101 96 94 85 70 59 59 56 44 39 32 32 22 347 333 311 302 303 298 301 300 297 289 274 284 302
260 268 282 298 311 319 330 342 3 140 102 97 112 113 107 105 106 103 97 93 80 66 63 58 57 49 40 33 35 13 351 353 346 340 356 357 345 344 344 327 308 271 266
253 258 266 285 303 318 344 2 16 40 79 93 99 102 96 97 97 93 86 85 78 73 71 69 65 55 42 32 34 24 24 35 30 26 30 20 11 10 5 1 353 336 299
256 253 260 274 302 314 334 15 24 37 71 107 116 111 103 97 94 94 90 87 83 74 76 73 65 53 44 38 40 39 43 49 45 36 35 24 20 20 10 7 4 348 328
266 256 260 267 292 316 323 342 72 97 112 129 125 118 114 109 107 105 97 93 92 81 71 68 62 52 45 43 42 50 55 58 56 48 42 25 21 17 5 2 1 349 341
262 245 235 247 293 340 322 310 88 142 148 142 135 131 130 124 118 108 101 98 100 90 76 67 59 52 49 47 46 55 60 61 53 43 36 27 23 13 359 1 359 353 352
247 236 220 218 215 207 256 249 193 138 140 142 142 141 133 124 114 104 99 97 96 93 85 74 58 47 47 44 59 66 67 59 49 38 28 29 32 29 20 13 0 360 0
235 228 215 203 198 197 193 196 178 139 137 140 140 134 128 123 111 105 102 97 94 90 82 70 62 49 39 52 80 87 77 66 56 39 20 21 26 14 14 17 19 18 10
230 218 207 199 198 196 190 188 181 148 138 139 135 130 126 120 112 108 104 102 103 101 89 75 66 56 36 66 88 89 86 74 59 45 31 27 16 13 5 2 15 22 23
223 215 206 200 199 199 194 179 165 155 147 142 138 136 133 127 119 112 110 104 107 110 100 84 71 63 41 67 99 96 86 77 62 48 36 28 14 11 3 8 17 17 18
213 209 201 195 195 198 190 169 167 162 157 156 153 153 146 139 133 128 122 110 113 110 101 90 76 67 43 60 98 99 88 75 56 39 33 29 19 5 15 24 16 12 8
207 201 190 181 195 205 181 172 178 176 179 172 161 154 150 146 145 142 128 117 120 118 109 89 74 73 59 55 81 92 90 77 53 28 21 24 17 8 18 29 22 13 353
200 191 181 189 204 191 170 184 190 198 192 166 151 147 144 144 141 132 122 127 125 117 107 96 77 68 65 60 66 75 83 85 62 33 9 0 2 10 20 32 30 359 338
195 186 186 204 207 184 176 192 206 202 170 155 151 147 144 143 136 130 126 131 132 126 120 110 92 68 60 64 67 68 68 73 71 27 351 343 358 20 28 30 24 21 23
195 187 190 203 207 193 185 197 206 174 159 155 155 150 142 135 141 144 142 138 141 140 139 133 125 110 79 68 66 62 56 54 58 358 345 357 14 26 32 31 29 29 29
196 188 184 198 210 204 199 202 182 166 160 161 159 153 147 142 142 146 153 154 158 154 150 150 148 139 115 81 54 39 31 28 26 8 1 19 33 41 31 25 25 28 26
193 183 189 200 209 201 201 195 174 164 164 164 163 160 158 154 149 143 157 169 175 172 165 170 163 157 158 177 152 118 36 358 352 2 26 33 32 34 30 27 22 18 18
189 189 198 204 207 196 199 191 177 171 166 167 169 168 163 160 154 143 112 75 145 173 172 164 159 163 165 156 148 119 48 18 76 88 63 49 43 41 29 24 19 19 17